Showing default

SPHEREX, 63182

Orbit data source: Space-Track

SPHEREX, 63182 is a payload satellite owned by JPL (US) in SSO that was launched on Wed, 12 Mar 2025 UTC via an FALCON 9 launch vehicle from the Air Force Western Test Range (AFWTR). Payload-class satellites include a variety of spacecraft equipped with specific instruments for various scientific and technological missions. These include communications satellites like Starlink; space stations such as the ISS; scientific satellites like the Hubble; Earth observation satellites from companies like Planet Labs, Umbra, and HawkEye 360; GPS; miniature CubeSats for education and research; and military/defense satellites.

Loading next visibility...
Identifier
63182, 2025-047E
Orbit
SSO
Country
Flag of USUS
Related business
Manufacturer
BAEB
Mission
Operational Civil Astronomy
Bus & Motor
SPHEREX, Unknown motor
Mass
502 kg wet, 502 kg dry
Launch date (UTC)
2025-03-12 (2 years ago)
Launch vehicle
FALCON 9
Launch site
Air Force Western Test Range (AFWTR)
Object type
Payload
Rocket body
Debris
Shape & HBR
Box + 1 Pan, 2.7 m
Radar Cross Section
0.625 m², Large (>1 m²)

Expand to show TLE details & history
Last TLE update: 8 hours ago

TLE from 8 hours ago
0 SPHEREX
1 63182U 25047E   26257.78393043  .00000730  00000-0  11813-3 0  9994
2 63182  97.9602  80.9811 0008969 265.5610  94.4574 14.74206270 81240
Epoch: 2026-09-14T18:48Z
TLE epoch observation values (Epoch: 2026-09-14T18:48:51.589Z)
Latitude
Longitude
165.00688°
Altitude
651.179 km
Speed
7.532 km/s
True Right ascension
05h 23m 55s
True Declination
0° 00' 00"
Sunlit
Object was in daylight at epoch
Visualization orbit readout
Latitude
Unknown
Longitude
Unknown
Altitude
Unknown
Speed
Unknown
Apparent Right ascension
Unknown
Apparent Declination
Unknown
Sunlit
N/A
Visualization observer readout
Local Sidereal Time
19:52:39
Azimuth
Unknown
Elevation
Unknown
Doppler factor
Unknown
Orbital elements
Apogee altitude
651.022 km
Perigee altitude
638.424 km
Semi-major axis
7,022.86 km
Eccentricity
0.0009
Inclination
97.9602°
RAAN
80.9811°
Arg. of periapsis
265.561°
True anomaly
94.55986°
Mean anomaly
94.4574°
Eccentric anomaly
94.50863°
Mean motion
3.68784 °/min
Orbital period
97.62 mins
BSTAR
0.00011813
Loading maneuver chart data...
Computing Atmospheric mass density...
Loading historical data...
Loading historical data...
Loading historical data...
Loading historical data...
Loading historical data...
Loading historical data...
Loading historical data...
Other satellites on launch #47 in the year 2025 (2025-03-12 UTC)

Documentation

Showing up to 5 results
|